Theta_e
307 305 300 298 299 301 301 300 300 300 301 302 302 304 303 303 303 304 305 305 305 305 305 304 305 306 304 300 302 304 305 305 304 304 301 300 299 300 302 303 304 303 303 302 303 303 301
307 304 299 300 301 301 301 301 302 302 302 302 302 303 303 303 303 304 305 305 305 305 305 305 304 304 303 301 304 305 304 304 302 303 300 300 298 300 299 302 301 301 298 298 300 301 300
306 302 300 302 302 302 302 302 304 304 303 302 302 303 304 304 304 305 304 305 305 305 305 304 305 305 302 302 304 305 303 302 301 301 299 299 300 297 298 302 300 299 297 296 296 295 297
304 301 301 302 303 303 303 304 305 305 303 303 303 303 304 304 304 304 305 306 306 306 307 307 307 304 300 304 305 305 302 301 301 301 300 300 300 296 296 297 296 295 294 294 295 296 295
303 302 300 301 303 303 303 304 305 305 304 303 304 304 303 304 304 304 305 306 306 307 307 306 306 303 301 304 304 304 303 300 300 300 300 300 299 294 295 293 293 292 293 294 293 294 295
302 301 302 300 301 303 304 304 305 305 304 304 304 304 304 304 305 307 310 311 306 306 307 306 303 302 301 301 303 303 303 303 301 299 297 295 294 295 294 293 292 294 293 292 292 292 293
300 301 301 302 301 301 303 304 305 305 305 305 305 304 304 304 305 306 309 312 303 301 303 300 301 300 301 302 303 303 302 302 299 296 295 296 295 294 294 294 294 294 293 293 293 294 294
300 300 301 301 302 302 301 304 304 304 305 306 305 305 304 304 305 306 310 310 310 304 302 303 303 303 303 303 300 301 302 299 297 296 296 293 294 295 295 296 295 294 294 293 293 295 293
300 300 300 301 301 302 303 302 304 303 305 306 307 305 304 304 305 307 308 314 312 308 302 304 304 303 304 303 300 299 300 298 296 296 295 294 295 297 296 295 295 295 294 294 295 296 296
299 300 300 300 301 302 303 303 303 304 304 307 306 307 305 304 304 305 310 313 311 310 304 306 304 304 303 303 302 302 301 301 299 295 296 295 296 296 295 295 295 293 294 294 297 296 296
299 299 300 300 301 302 303 303 303 304 305 304 306 305 306 310 315 310 313 312 310 320 314 306 304 305 303 302 302 302 301 300 299 298 298 296 295 295 295 295 295 295 295 294 297 297 295
298 299 299 300 300 301 303 303 304 304 304 305 307 305 308 315 314 315 313 312 317 313 308 307 305 304 304 303 303 301 299 297 298 297 295 295 295 295 296 296 295 295 294 293 292 293 290
296 298 299 300 300 301 303 304 305 305 304 305 306 312 316 318 315 314 312 317 308 306 309 307 306 305 304 304 304 301 297 295 295 297 297 295 295 296 296 295 294 292 291 292 293 292 291
296 297 298 299 300 300 302 304 305 305 304 305 308 310 312 318 315 312 318 306 302 310 307 306 306 306 305 304 305 303 300 297 295 296 296 296 296 295 296 295 295 294 292 290 293 290 289
295 296 297 298 300 300 302 304 305 304 302 306 311 312 311 307 311 315 310 305 307 308 307 307 305 306 305 304 305 303 299 298 297 295 297 296 297 296 296 297 294 295 292 293 295 295 294
295 295 296 298 299 300 301 303 305 305 305 308 313 316 308 307 309 317 306 310 308 305 306 307 308 306 306 305 305 304 301 299 297 297 296 297 296 297 296 296 296 295 294 292 292 288 288
294 295 296 297 298 300 300 302 304 306 306 308 312 313 309 306 311 311 307 308 305 304 306 307 307 307 305 304 304 304 302 299 297 298 298 297 295 296 298 297 294 293 294 293 292 293 288
294 294 295 296 298 299 300 301 304 305 306 308 312 314 309 311 312 307 305 308 305 304 305 305 306 305 305 305 305 304 302 301 297 297 298 296 294 295 298 297 296 295 295 294 292 294 293
295 293 294 296 297 299 299 300 303 304 306 308 311 307 310 314 306 301 305 306 306 305 305 305 304 304 303 304 306 304 301 298 298 298 297 295 295 297 298 296 296 296 296 295 294 291 286
295 295 293 295 296 298 299 300 303 303 304 306 310 307 307 306 307 305 306 305 305 305 304 304 303 303 304 305 304 304 301 299 298 298 299 296 295 298 297 298 296 298 298 295 293 292 286
296 295 294 294 296 297 298 300 304 305 304 306 307 309 308 302 306 307 306 306 305 304 304 304 303 304 305 304 305 303 303 299 298 301 296 296 298 298 299 299 300 299 300 298 291 288 292
296 296 295 293 294 296 298 299 304 308 306 313 310 308 305 308 310 309 308 307 305 306 304 304 304 306 303 303 305 304 303 300 299 298 296 295 298 299 300 300 298 300 299 296 296 290 289
297 296 296 294 293 295 297 298 301 308 313 312 311 311 309 308 308 307 306 310 308 305 306 305 303 305 303 304 301 301 301 301 300 297 296 297 297 300 302 300 298 298 299 298 296 294 290
298 297 296 296 294 294 296 297 300 305 308 309 308 310 308 307 308 309 313 310 307 307 306 304 304 304 303 301 301 300 300 300 299 299 297 299 299 299 301 299 295 300 298 297 295 296 291
299 298 297 297 295 293 295 296 298 304 306 304 308 311 309 308 310 309 308 305 304 304 305 304 303 301 300 300 301 301 303 304 304 301 299 298 298 299 296 299 300 301 296 294 293 294 293
298 299 297 297 296 295 294 295 296 301 306 304 308 310 312 308 306 309 307 305 302 302 303 303 301 301 299 299 300 297 304 308 305 303 301 299 297 297 299 299 298 300 294 293 293 293 294
299 299 299 297 297 296 294 294 295 299 304 302 304 309 309 304 305 307 304 304 304 303 301 303 302 301 298 300 297 304 308 306 304 303 301 300 299 298 299 295 297 299 294 294 296 299 293
299 300 300 298 297 297 296 294 294 298 302 305 303 305 307 303 302 305 303 305 303 302 302 302 300 299 297 298 301 302 304 304 304 303 300 299 299 297 298 297 297 295 293 296 297 293 293
300 300 300 299 297 298 296 295 295 298 301 305 303 304 306 304 302 305 303 302 303 304 300 299 302 300 297 297 297 298 305 301 302 304 302 303 300 301 299 299 298 294 296 294 294 294 293
Wind_Speed
18 17 16 15 15 14 14 13 12 11 10 10 9 9 9 11 11 11 11 12 14 18 22 33 16 8 14 11 5 20 21 28 32 39 37 9 15 6 6 4 6 11 6 15 20 18 17
19 17 16 16 16 15 14 13 12 11 10 9 8 8 7 7 5 10 9 7 9 11 17 15 26 21 8 22 22 24 19 29 38 42 36 23 5 1 5 5 11 10 21 13 11 13 13
19 18 16 16 16 15 14 13 12 11 10 9 8 7 6 3 3 6 9 10 11 13 16 21 14 7 27 6 19 28 27 33 40 42 29 32 12 9 0 4 3 8 12 19 17 6 7
19 18 16 16 16 15 14 13 12 11 10 10 9 7 5 4 4 6 8 11 8 9 7 8 3 10 7 19 20 29 27 39 38 33 37 32 26 9 6 3 7 8 7 6 7 15 7
20 18 16 14 14 14 14 13 12 11 10 9 8 7 8 8 7 6 9 12 17 5 10 16 6 7 5 27 24 27 19 22 33 43 34 34 32 9 12 8 6 8 3 5 9 6 4
21 20 18 14 13 13 13 13 12 10 8 7 7 7 7 6 7 8 10 6 18 13 5 4 13 6 8 4 13 26 18 16 16 12 17 12 8 12 12 8 4 4 4 4 4 6 10
20 20 19 16 13 11 11 11 11 10 7 5 5 5 5 3 3 5 18 4 6 7 19 8 3 7 3 4 23 23 18 10 8 9 5 13 13 18 14 9 6 8 7 7 8 8 5
18 19 19 17 14 11 8 9 10 9 8 4 2 2 7 4 2 6 16 6 1 7 5 8 7 6 6 12 8 20 23 7 8 10 4 7 16 9 8 10 8 8 7 3 10 10 9
18 18 18 17 15 12 8 5 7 9 9 6 2 1 1 4 5 4 11 7 8 6 5 1 0 3 1 15 4 9 7 6 9 11 13 10 3 7 7 10 6 2 10 11 6 11 8
17 17 18 17 16 14 9 6 4 7 10 7 5 3 3 4 2 4 4 6 7 4 4 1 5 5 4 4 5 11 9 2 5 6 7 8 4 6 5 9 5 5 8 8 6 3 1
17 17 18 18 18 16 11 6 3 1 7 8 6 6 7 3 2 3 3 4 7 2 4 1 2 1 4 6 2 5 18 6 5 5 5 1 3 3 4 2 4 4 7 5 3 4 4
16 17 18 18 18 17 13 7 4 1 1 5 5 4 4 4 4 4 3 6 2 6 1 0 3 4 2 3 3 3 6 9 4 7 7 3 3 1 2 0 6 7 5 5 5 2 3
15 17 17 18 19 19 15 9 6 2 2 2 3 4 3 2 2 1 3 3 5 6 2 2 2 2 3 1 3 3 4 8 4 2 2 2 1 2 1 3 6 7 5 3 5 5 4
15 16 17 18 19 19 17 10 8 3 4 4 4 5 3 3 1 1 2 5 7 4 2 1 3 1 3 1 1 3 4 3 6 5 4 4 4 4 3 3 2 4 5 4 3 3 6
16 16 17 18 20 19 19 11 8 4 5 5 3 3 2 3 4 3 5 5 6 1 2 3 1 3 1 1 1 4 3 2 1 3 3 3 4 1 1 2 4 3 3 4 2 3 2
17 16 16 17 19 19 19 12 7 3 4 4 2 1 2 3 5 3 5 3 2 3 4 3 1 0 3 2 2 2 4 1 3 1 4 1 4 3 3 3 2 4 3 3 3 2 5
18 18 16 16 18 19 19 15 7 2 2 2 1 3 2 3 2 5 3 4 3 3 4 3 2 2 3 2 1 2 3 1 1 1 2 2 3 4 3 4 6 2 0 2 3 4 3
20 18 18 17 18 18 18 18 8 4 3 3 2 3 1 1 3 2 3 2 2 1 2 2 3 3 2 1 1 2 3 3 4 3 2 1 3 4 3 2 3 3 5 5 3 4 4
19 19 18 18 17 17 18 18 11 4 3 2 2 1 2 2 3 2 3 2 3 2 1 1 2 3 1 2 0 2 4 4 6 3 5 3 1 4 2 3 4 5 4 5 3 3 5
18 19 19 18 17 17 17 16 12 5 1 2 3 2 4 4 1 6 4 3 2 2 2 3 3 3 2 1 2 4 3 5 6 3 7 4 3 6 5 7 3 5 5 6 6 3 4
16 18 19 19 18 17 17 16 12 7 1 3 2 3 4 2 3 4 4 7 4 4 1 1 1 4 4 2 2 3 3 3 3 8 3 4 4 4 8 13 11 10 14 8 8 7 6
15 17 19 19 18 17 17 17 14 9 2 1 3 3 3 2 1 6 3 7 8 4 6 3 3 3 6 5 4 4 3 5 6 1 5 3 3 3 7 11 6 9 10 10 11 4 8
14 16 18 19 19 18 17 16 15 11 2 2 2 2 4 4 2 5 4 5 9 8 3 3 6 2 4 4 3 3 2 3 7 9 7 6 3 2 4 3 6 6 9 6 4 4 6
12 14 16 18 19 19 17 15 13 13 9 4 4 1 4 3 2 5 3 3 5 4 7 3 3 4 2 2 1 1 2 4 6 6 7 5 3 2 4 6 3 5 4 6 8 5 8
10 12 14 16 18 18 17 16 12 10 7 9 2 2 3 1 2 3 5 6 4 4 3 3 2 2 2 3 3 4 3 3 3 6 7 5 4 2 1 2 9 6 2 5 6 8 7
9 11 12 14 16 17 17 16 13 9 6 5 10 3 3 4 3 4 3 5 5 3 2 2 2 2 5 3 3 2 3 3 2 1 4 5 4 4 1 2 5 5 3 4 4 5 5
8 10 10 11 14 15 16 15 15 9 7 5 7 6 3 3 3 2 3 5 5 4 3 2 3 2 4 2 2 3 3 3 2 4 5 3 2 7 3 4 9 9 6 4 2 5 6
10 9 10 9 11 13 14 14 14 10 8 1 6 8 2 2 4 4 3 2 2 3 5 4 4 3 3 2 3 3 3 4 1 3 6 8 6 4 3 2 9 7 5 6 6 4 7
11 9 9 9 9 10 12 12 12 10 8 3 2 4 4 2 3 2 3 3 2 3 5 3 4 4 5 3 0 2 2 1 3 3 1 3 7 5 9 7 6 13 8 11 7 6 7
Wind_Direction
42 46 55 58 51 49 53 56 67 70 71 73 77 82 88 112 88 50 33 32 57 60 53 53 47 89 60 60 28 359 27 24 32 35 38 23 35 14 60 8 72 86 99 65 89 85 82
42 48 56 56 50 52 53 59 63 62 67 75 81 86 95 131 56 28 40 47 51 53 55 51 54 69 57 59 3 18 27 51 50 47 34 40 13 28 66 57 56 76 73 67 63 86 75
45 51 56 54 52 54 54 58 58 59 66 76 81 90 101 106 16 38 70 60 79 80 61 54 61 45 55 24 18 33 73 68 60 56 48 27 6 67 155 71 46 91 82 62 32 5 117
44 52 57 55 54 55 57 61 56 60 72 79 78 74 80 95 94 79 62 56 27 353 359 360 355 46 80 28 37 35 92 72 67 56 51 36 39 90 52 5 29 28 44 36 29 32 2
46 49 54 56 56 58 58 59 57 61 72 75 69 73 90 101 95 69 51 47 31 37 59 48 59 88 28 28 26 26 108 94 72 61 48 45 38 30 23 44 35 18 14 28 344 29 8
49 49 50 55 56 58 58 56 55 58 70 74 71 95 105 101 94 86 6 338 46 48 25 58 27 56 5 341 17 30 74 56 51 45 33 24 62 65 49 53 66 3 37 317 318 308 71
49 49 48 47 49 55 57 54 52 51 54 70 78 116 140 131 111 2 356 70 28 3 48 101 123 113 336 82 35 21 8 57 45 57 69 29 52 45 33 31 79 73 35 346 309 281 48
47 46 44 44 42 44 54 53 49 44 38 55 104 137 191 192 242 358 26 71 66 159 67 75 87 94 63 51 31 358 34 72 44 56 56 30 50 32 48 34 55 54 13 309 292 350 101
45 42 42 38 36 37 45 52 49 44 38 60 72 166 188 208 218 16 21 55 27 173 96 272 117 68 83 64 30 348 39 91 87 71 73 83 63 40 51 30 25 33 15 339 306 95 84
45 41 38 36 32 29 30 39 57 54 49 51 43 143 144 134 135 317 26 32 353 17 76 350 329 349 9 136 44 35 16 75 53 147 100 84 23 61 45 43 11 10 332 335 327 76 67
42 41 35 33 29 25 26 27 32 84 50 45 60 109 121 94 50 74 11 329 315 36 49 115 46 115 15 86 227 348 27 32 55 16 69 202 59 59 49 24 6 293 332 293 58 75 111
38 36 35 29 27 23 23 29 18 309 224 39 78 123 122 86 86 43 320 298 16 44 32 119 143 171 58 24 30 87 27 39 46 56 42 102 176 82 165 359 64 304 354 23 38 80 36
36 33 31 29 25 22 20 23 22 360 174 110 83 130 128 136 138 306 306 33 43 98 175 173 176 140 107 30 3 70 64 30 53 51 48 168 214 253 158 51 15 29 43 350 7 8 234
36 31 26 26 24 21 21 20 21 40 142 134 100 112 116 165 201 178 71 54 77 173 170 188 134 152 136 52 261 60 89 41 20 52 52 27 323 206 178 123 223 53 91 125 253 270 269
37 32 26 24 21 20 19 25 22 81 127 143 111 103 75 78 155 132 72 55 189 321 5 156 129 172 162 340 129 91 57 93 41 46 82 28 284 74 137 115 122 347 25 177 188 270 304
35 33 28 24 22 17 21 23 30 83 131 146 92 104 46 105 132 93 74 192 174 23 1 9 205 201 147 188 128 90 151 352 140 65 125 199 300 204 176 123 7 133 197 20 22 339 297
32 30 28 25 21 17 18 21 30 57 148 157 79 62 41 124 123 52 134 215 123 26 59 55 27 73 85 135 175 123 134 139 100 200 7 48 104 285 127 192 184 2 60 70 170 145 197
29 27 26 25 22 18 17 17 26 53 128 126 76 66 91 179 58 38 134 144 123 146 13 41 92 67 97 113 9 131 163 161 164 142 109 1 157 272 257 308 160 200 202 155 129 255 214
26 23 22 22 21 18 17 17 15 29 135 109 97 169 103 321 130 308 271 82 83 155 149 118 103 71 36 150 175 137 144 164 159 132 162 158 224 310 264 332 324 249 228 195 149 82 214
22 19 20 18 20 18 15 16 15 15 29 137 94 55 332 44 131 140 154 191 150 50 74 80 130 98 81 272 214 202 169 190 175 114 137 117 182 193 209 225 184 267 235 195 157 151 217
17 16 16 16 16 20 14 12 17 9 155 164 68 230 192 240 294 179 142 167 148 191 51 121 92 187 177 216 189 230 131 105 142 154 130 129 243 214 250 258 257 254 273 250 200 205 183
15 14 14 13 14 19 17 11 16 13 136 140 127 124 12 189 154 125 138 210 173 161 148 229 199 226 193 181 195 208 163 164 196 188 156 179 271 260 281 276 275 274 261 240 237 202 257
11 11 11 12 12 15 19 15 15 23 124 84 25 78 105 282 86 103 220 211 199 140 207 146 191 162 204 191 163 194 209 159 158 158 190 165 201 341 268 303 295 308 254 207 225 202 171
1 5 6 8 11 12 16 19 21 22 42 76 49 99 89 260 155 196 225 184 145 169 149 157 84 135 179 48 336 183 252 240 194 206 169 164 143 161 286 344 352 238 227 198 196 230 215
349 356 360 3 8 11 13 16 22 26 47 63 51 147 123 205 229 259 116 118 93 43 77 91 47 133 129 56 37 0 345 353 253 214 195 168 118 291 268 234 284 297 186 174 168 274 216
332 343 350 357 2 8 12 13 16 25 37 54 41 62 104 121 255 300 171 172 148 130 48 68 30 56 74 84 76 133 249 257 297 101 164 116 103 137 34 309 258 237 188 131 112 292 213
309 325 335 346 356 3 10 11 11 19 31 63 49 31 95 120 266 30 165 182 132 107 128 153 184 82 63 99 103 168 251 224 235 197 173 158 204 204 181 248 280 248 165 162 89 250 179
289 305 318 327 345 357 5 9 9 16 22 76 61 34 36 147 289 21 11 114 71 115 145 200 58 341 54 110 141 224 186 245 292 216 181 176 166 200 174 208 279 153 91 172 210 178 173
276 286 298 312 325 345 357 5 8 15 20 76 27 18 351 111 212 32 98 73 111 169 132 176 178 161 180 98 248 89 268 309 182 266 197 224 195 183 183 218 224 193 200 212 172 164 199